Weather History for KENL - September, 2014

Change the Weather History Date:

Tuesday, September 2, 2014

  Actual Average (KSLO) Record (KSLO)
Temperature  
Mean Temperature 72 °F -  
Max Temperature 80 °F 85 °F 98 °F (2011)
Min Temperature 65 °F 63 °F 48 °F (1965)
Cooling Degree Days 8    
Growing Degree Days 22 (Base 50)    
Moisture  
Dew Point 67 °F    
Average Humidity 85    
Maximum Humidity 94    
Minimum Humidity 66    
Precipitation  
Precipitation 1.05 in - - ()
Sea Level Pressure  
Sea Level Pressure 29.96 in    
Wind  
Wind Speed 7 mph (WNW)    
Max Wind Speed 20 mph    
Max Gust Speed 32 mph    
Visibility 9 miles    
Events Rain    
Averages and records for this station are not official NWS values.
T = Trace of Precipitation, MM = Missing Value Source: NWS Daily Summary

Daily Weather History Graph

Daily Weather History Graph

Search for Another Location

Airport or City:

Trip Planner

Search our weather history database for the weather conditions in past years. The results will help you decide how hot, cold, wet, or windy it might be!

Date:

Astronomy

Sep. 02, 2014 Rise Set
Actual Time 6:26 AM CDT 7:24 PM CDT
Civil Twilight 5:59 AM CDT 7:51 PM CDT
Nautical Twilight 5:27 AM CDT 8:23 PM CDT
Astronomical Twilight 4:53 AM CDT 8:57 PM CDT
Moon 2:05 PM CDT (9/2) No Moon Set
Length of Visible Light 13h 52m
Length of Day
12h 58m
First Quarter, 53% of the Moon is Illuminated
Sep 2
First Quarter
Sep 8
Full
Sep 15
Last Quarter
Sep 24
New
Oct 1
First Quarter

Hourly Weather History & Observations

Time (CDT) Temp. Heat Index Dew Point Humidity Pressure Visibility Wind Dir Wind Speed Gust Speed Precip Events Conditions
12:15 AM 75.2 °F - 69.8 °F 83% 29.92 in 7.0 mi South 12.7 mph 18.4 mph 0.02 in Rain Light Rain
12:35 AM 75.2 °F - 71.6 °F 89% 29.92 in 10.0 mi West 6.9 mph - 0.02 in Rain Light Rain
12:55 AM 71.6 °F - 68.0 °F 88% 29.92 in 10.0 mi North 16.1 mph 19.6 mph 0.02 in   Overcast
1:15 AM 71.6 °F - 68.0 °F 88% 29.92 in 10.0 mi NNE 8.1 mph 32.2 mph N/A   Overcast
1:35 AM 69.8 °F - 66.2 °F 88% 29.93 in 10.0 mi North 19.6 mph 24.2 mph 0.01 in Rain Light Rain
1:55 AM 69.8 °F - 66.2 °F 88% 29.93 in 1.5 mi NE 11.5 mph - 0.55 in Rain Heavy Rain
2:15 AM 69.8 °F - 66.2 °F 88% 29.97 in 4.0 mi NNW 5.8 mph - 0.06 in Rain Heavy Rain
2:35 AM 68.0 °F - 66.2 °F 94% 29.95 in 10.0 mi NNE 3.5 mph - 0.16 in Rain Light Rain
2:55 AM 68.0 °F - 66.2 °F 94% 29.95 in 7.0 mi NNW 5.8 mph - 0.19 in Rain Rain
3:15 AM 68.0 °F - 66.2 °F 94% 29.95 in 10.0 mi Calm Calm - 0.06 in Rain Light Rain
3:35 AM 68.0 °F - 66.2 °F 94% 29.97 in 5.0 mi ESE 4.6 mph - 0.11 in Rain Rain
3:55 AM 68.0 °F - 66.2 °F 94% 29.95 in 5.0 mi East 3.5 mph - 0.22 in Rain Light Rain
4:15 AM 68.0 °F - 66.2 °F 94% 29.95 in 10.0 mi Calm Calm - 0.01 in Rain Rain
4:35 AM 68.0 °F - 66.2 °F 94% 29.96 in 7.0 mi SSE 4.6 mph - 0.03 in Rain Rain
4:55 AM 68.0 °F - 66.2 °F 94% 29.93 in 10.0 mi SE 8.1 mph - 0.06 in Rain Light Rain
5:15 AM 68.0 °F - 66.2 °F 94% 29.91 in 10.0 mi ESE 4.6 mph - 0.01 in Rain Light Rain
5:35 AM 68.0 °F - 66.2 °F 94% 29.91 in 10.0 mi ESE 4.6 mph - 0.01 in Rain Light Rain
5:55 AM 68.0 °F - 64.4 °F 88% 29.92 in 10.0 mi SSE 5.8 mph - 0.01 in   Clear
6:15 AM 68.0 °F - 64.4 °F 88% 29.93 in 10.0 mi SE 4.6 mph - N/A   Clear
6:35 AM 68.0 °F - 66.2 °F 94% 29.93 in 10.0 mi SE 5.8 mph - N/A   Clear
6:55 AM 68.0 °F - 66.2 °F 94% 29.94 in 10.0 mi Calm Calm - N/A   Clear
7:15 AM 68.0 °F - 66.2 °F 94% 29.94 in 10.0 mi Calm Calm - N/A   Mostly Cloudy
7:35 AM 69.8 °F - 66.2 °F 88% 29.94 in 10.0 mi SSE 4.6 mph - N/A   Mostly Cloudy
7:55 AM 69.8 °F - 66.2 °F 88% 29.93 in 10.0 mi SSE 5.8 mph - N/A   Scattered Clouds
8:15 AM 69.8 °F - 66.2 °F 88% 29.94 in 10.0 mi South 4.6 mph - N/A   Scattered Clouds
8:34 AM 71.6 °F - 68.0 °F 88% 29.93 in 10.0 mi SSE 3.5 mph - N/A   Mostly Cloudy
8:54 AM 71.6 °F - 68.0 °F 88% 29.94 in 10.0 mi Calm Calm - N/A   Overcast
9:14 AM 71.6 °F - 68.0 °F 88% 29.95 in 10.0 mi Calm Calm - N/A   Overcast
9:34 AM 73.4 °F - 69.8 °F 88% 29.96 in 10.0 mi SSW 4.6 mph - N/A   Overcast
9:54 AM 73.4 °F - 69.8 °F 88% 29.96 in 10.0 mi SW 9.2 mph - N/A   Overcast
10:14 AM 75.2 °F - 69.8 °F 83% 29.96 in 10.0 mi WSW 10.4 mph 16.1 mph N/A   Mostly Cloudy
10:34 AM 77.0 °F - 69.8 °F 78% 29.96 in 10.0 mi WSW 10.4 mph - N/A   Scattered Clouds
10:54 AM 75.2 °F - 69.8 °F 83% 29.96 in 10.0 mi West 6.9 mph - N/A   Mostly Cloudy
11:14 AM 77.0 °F - 69.8 °F 78% 29.95 in 10.0 mi WNW 10.4 mph - N/A   Mostly Cloudy
11:30 AM - - - N/A% 29.96 in - WNW 10.4 mph - N/A   Unknown
11:50 AM 76.3 °F - 69.8 °F 80% 29.97 in 10.0 mi WNW 8.1 mph - N/A   Overcast
12:10 PM 75.9 °F - 69.4 °F 80% 29.97 in 10.0 mi WNW 8.1 mph - N/A   Overcast
12:30 PM 75.2 °F - 69.8 °F 83% 29.98 in 10.0 mi WNW 9.2 mph - N/A   Overcast
12:50 PM 75.6 °F - 68.9 °F 80% 29.98 in 10.0 mi WNW 6.9 mph - N/A   Overcast
1:10 PM 75.7 °F - 68.9 °F 79% 29.99 in 10.0 mi WNW 6.9 mph - N/A   Overcast
1:30 PM 76.1 °F - 69.3 °F 79% 30.00 in 10.0 mi WNW 5.8 mph - N/A   Mostly Cloudy
1:50 PM 77.9 °F - 69.4 °F 75% 30.00 in 10.0 mi WNW 8.1 mph - N/A   Scattered Clouds
2:10 PM 77.4 °F - 69.6 °F 77% 29.99 in 10.0 mi WNW 6.9 mph - N/A   Mostly Cloudy
2:30 PM 78.3 °F - 69.4 °F 74% 29.98 in 10.0 mi WNW 6.9 mph - N/A   Mostly Cloudy
2:50 PM 79.2 °F - 69.4 °F 72% 29.97 in 10.0 mi WNW 8.1 mph - N/A   Scattered Clouds
3:10 PM 78.8 °F - 68.0 °F 69% 29.96 in 10.0 mi NW 9.2 mph - N/A   Mostly Cloudy
3:30 PM 80.2 °F 83.2 °F 69.1 °F 69% 29.95 in 10.0 mi WNW 9.2 mph - N/A   Scattered Clouds
3:50 PM 80.4 °F 83.2 °F 68.7 °F 67% 29.95 in 10.0 mi NNW 8.1 mph - N/A   Scattered Clouds
4:10 PM 80.1 °F 82.6 °F 67.6 °F 66% 29.94 in 10.0 mi NNW 10.4 mph - N/A   Scattered Clouds
4:30 PM 79.3 °F - 67.1 °F 66% 29.94 in 10.0 mi WNW 8.1 mph - N/A   Scattered Clouds
4:50 PM 79.2 °F - 67.3 °F 67% 29.94 in 10.0 mi NW 6.9 mph - N/A   Scattered Clouds
5:10 PM 79.7 °F - 67.5 °F 66% 29.94 in 10.0 mi NNW 9.2 mph - N/A   Clear
5:30 PM 77.9 °F - 66.7 °F 68% 29.94 in 10.0 mi NNW 5.8 mph - N/A   Clear
5:50 PM 77.7 °F - 69.4 °F 76% 29.94 in 10.0 mi Calm Calm - N/A   Clear
6:10 PM 78.1 °F - 68.0 °F 71% 29.94 in 10.0 mi North 4.6 mph - N/A   Clear
6:30 PM 77.0 °F - 67.3 °F 72% 29.94 in 10.0 mi North 4.6 mph - N/A   Clear
6:50 PM 76.5 °F - 67.3 °F 73% 29.95 in 10.0 mi Calm Calm - N/A   Clear
7:10 PM 73.2 °F - 68.0 °F 84% 29.96 in 10.0 mi Calm Calm - N/A   Clear
7:30 PM 70.9 °F - 67.3 °F 88% 29.96 in 10.0 mi Calm Calm - N/A   Clear
7:50 PM 69.8 °F - 66.6 °F 89% 29.98 in 10.0 mi South 3.5 mph - N/A   Clear
8:10 PM 68.9 °F - 66.2 °F 91% 29.99 in 10.0 mi South 3.5 mph - N/A   Clear
8:30 PM 68.4 °F - 65.7 °F 91% 30.00 in 10.0 mi South 3.5 mph - N/A   Clear
8:50 PM 68.4 °F - 65.8 °F 92% 30.00 in 10.0 mi Calm Calm - N/A   Clear
9:10 PM 67.8 °F - 65.5 °F 92% 30.01 in 10.0 mi Calm Calm - N/A   Clear
9:30 PM 68.0 °F - 65.7 °F 92% 30.01 in 10.0 mi Calm Calm - N/A   Clear
9:50 PM 67.1 °F - 64.8 °F 92% 30.01 in 1.8 mi Calm Calm - N/A   Mist
10:10 PM 66.6 °F - 64.4 °F 93% 30.02 in 3.0 mi Calm Calm - N/A   Clear
10:30 PM 66.2 °F - 63.9 °F 92% 30.03 in 7.0 mi SE 3.5 mph - N/A   Clear
10:50 PM 66.0 °F - 63.9 °F 93% 30.03 in 4.0 mi Calm Calm - N/A   Clear
11:10 PM 65.3 °F - 63.3 °F 93% 30.03 in 5.0 mi Calm Calm - N/A   Clear
11:30 PM 65.5 °F - 63.5 °F 93% 30.03 in 10.0 mi Calm Calm - N/A   Clear
11:50 PM 66.0 °F - 63.9 °F 93% 30.03 in 7.0 mi Calm Calm - N/A   Clear